Time,TemperatureF,DewpointF,PressureIn,WindDirection,WindDirectionDegrees,WindSpeedMPH,WindSpeedGustMPH,Humidity,HourlyPrecipIn,Conditions,Clouds,dailyrainin,SoftwareType,DateUTC
2015-08-02 00:03:00,73.9,66.6,29.92,SSW,199,3.0,3.0,78,0.00,,,0.00,Wunderground v.1.15,2015-08-02 05:03:00,
2015-08-02 00:09:00,73.8,66.1,29.92,SSW,199,3.0,3.0,77,0.00,,,0.00,Wunderground v.1.15,2015-08-02 05:09:00,
2015-08-02 00:14:00,73.7,66.0,29.93,SSW,193,3.0,4.0,77,0.00,,,0.00,Wunderground v.1.15,2015-08-02 05:14:00,
2015-08-02 00:20:00,73.7,66.4,29.93,SSW,200,3.0,5.0,78,0.00,,,0.00,Wunderground v.1.15,2015-08-02 05:20:00,
2015-08-02 00:26:00,73.6,66.3,29.93,SSW,200,3.0,4.0,78,0.00,,,0.00,Wunderground v.1.15,2015-08-02 05:26:00,
2015-08-02 00:32:00,73.5,65.8,29.93,SSW,198,3.0,3.0,77,0.00,,,0.00,Wunderground v.1.15,2015-08-02 05:32:00,
2015-08-02 00:38:00,73.4,65.7,29.93,SSW,199,3.0,4.0,77,0.00,,,0.00,Wunderground v.1.15,2015-08-02 05:38:00,
2015-08-02 00:44:00,73.3,65.7,29.93,SSW,198,2.0,3.0,77,0.00,,,0.00,Wunderground v.1.15,2015-08-02 05:44:00,
2015-08-02 00:56:00,73.0,65.7,29.93,SSW,199,2.0,3.0,78,0.00,,,0.00,Wunderground v.1.15,2015-08-02 05:56:00,
2015-08-02 01:01:00,73.0,65.7,29.93,SSW,199,3.0,3.0,78,0.00,,,0.00,Wunderground v.1.15,2015-08-02 06:01:00,
2015-08-02 01:07:00,72.8,65.9,29.92,SSW,198,3.0,4.0,79,0.00,,,0.00,Wunderground v.1.15,2015-08-02 06:07:00,
2015-08-02 01:13:00,72.8,65.5,29.92,SSW,200,3.0,4.0,78,0.00,,,0.00,Wunderground v.1.15,2015-08-02 06:13:00,
2015-08-02 01:19:00,72.7,65.4,29.92,SSW,199,3.0,5.0,78,0.00,,,0.00,Wunderground v.1.15,2015-08-02 06:19:00,
2015-08-02 01:25:00,72.7,65.4,29.92,SSW,198,3.0,3.0,78,0.00,,,0.00,Wunderground v.1.15,2015-08-02 06:25:00,
2015-08-02 01:31:00,72.6,65.7,29.92,SSW,198,3.0,5.0,79,0.00,,,0.00,Wunderground v.1.15,2015-08-02 06:31:00,
2015-08-02 01:37:00,72.5,65.6,29.92,SSW,197,4.0,7.0,79,0.00,,,0.00,Wunderground v.1.15,2015-08-02 06:37:00,
2015-08-02 01:43:00,72.5,65.6,29.92,SSW,202,4.0,4.0,79,0.00,,,0.00,Wunderground v.1.15,2015-08-02 06:43:00,
2015-08-02 01:49:00,72.5,66.0,29.92,SSW,198,3.0,5.0,80,0.00,,,0.00,Wunderground v.1.15,2015-08-02 06:49:00,
2015-08-02 01:55:00,72.5,66.0,29.92,SSW,200,3.0,4.0,80,0.00,,,0.00,Wunderground v.1.15,2015-08-02 06:55:00,
2015-08-02 02:01:00,72.5,66.3,29.92,SSW,197,3.0,3.0,81,0.00,,,0.00,Wunderground v.1.15,2015-08-02 07:01:00,
2015-08-02 02:07:00,72.5,66.3,29.91,SSW,199,3.0,7.0,81,0.00,,,0.00,Wunderground v.1.15,2015-08-02 07:07:00,
2015-08-02 02:13:00,72.5,66.3,29.91,SSW,198,3.0,4.0,81,0.00,,,0.00,Wunderground v.1.15,2015-08-02 07:13:00,
2015-08-02 02:19:00,72.6,66.4,29.91,SSW,199,3.0,7.0,81,0.00,,,0.00,Wunderground v.1.15,2015-08-02 07:19:00,
2015-08-02 02:24:00,72.6,66.4,29.91,SSW,202,3.0,5.0,81,0.00,,,0.00,Wunderground v.1.15,2015-08-02 07:24:00,
2015-08-02 02:30:00,72.5,66.7,29.91,SSW,198,3.0,5.0,82,0.00,,,0.00,Wunderground v.1.15,2015-08-02 07:30:00,
2015-08-02 02:36:00,72.4,66.6,29.91,SSW,195,3.0,3.0,82,0.00,,,0.00,Wunderground v.1.15,2015-08-02 07:36:00,
2015-08-02 02:42:00,72.2,66.7,29.91,SSW,198,3.0,3.0,83,0.00,,,0.00,Wunderground v.1.15,2015-08-02 07:42:00,
2015-08-02 02:48:00,72.1,66.6,29.91,SSW,199,3.0,4.0,83,0.00,,,0.00,Wunderground v.1.15,2015-08-02 07:48:00,
2015-08-02 02:54:00,72.0,66.6,29.91,SSW,197,3.0,3.0,83,0.00,,,0.00,Wunderground v.1.15,2015-08-02 07:54:00,
2015-08-02 03:00:00,71.8,66.7,29.90,SSW,196,2.0,3.0,84,0.00,,,0.00,Wunderground v.1.15,2015-08-02 08:00:00,
2015-08-02 03:06:00,71.7,66.6,29.90,SSW,200,3.0,4.0,84,0.00,,,0.00,Wunderground v.1.15,2015-08-02 08:06:00,
2015-08-02 03:12:00,71.6,66.8,29.90,SSW,195,3.0,3.0,85,0.00,,,0.00,Wunderground v.1.15,2015-08-02 08:12:00,
2015-08-02 03:18:00,71.6,66.8,29.90,SSW,196,3.0,4.0,85,0.00,,,0.00,Wunderground v.1.15,2015-08-02 08:18:00,
2015-08-02 03:24:00,71.6,66.8,29.90,SSW,198,3.0,5.0,85,0.00,,,0.00,Wunderground v.1.15,2015-08-02 08:24:00,
2015-08-02 03:30:00,71.6,67.2,29.90,SSW,196,4.0,7.0,86,0.00,,,0.00,Wunderground v.1.15,2015-08-02 08:30:00,
2015-08-02 03:36:00,71.6,67.2,29.90,SSW,200,3.0,4.0,86,0.00,,,0.00,Wunderground v.1.15,2015-08-02 08:36:00,
2015-08-02 03:42:00,71.5,66.8,29.89,SSW,199,3.0,5.0,85,0.00,,,0.00,Wunderground v.1.15,2015-08-02 08:42:00,
2015-08-02 03:48:00,71.1,66.7,29.89,SSW,202,3.0,5.0,86,0.00,,,0.00,Wunderground v.1.15,2015-08-02 08:48:00,
2015-08-02 03:53:00,71.0,66.6,29.89,SSW,196,3.0,5.0,86,0.00,,,0.00,Wunderground v.1.15,2015-08-02 08:53:00,
2015-08-02 03:59:00,70.9,66.8,29.89,SSW,198,4.0,6.0,87,0.00,,,0.00,Wunderground v.1.15,2015-08-02 08:59:00,
2015-08-02 04:05:00,70.9,66.8,29.89,SSW,198,4.0,7.0,87,0.00,,,0.00,Wunderground v.1.15,2015-08-02 09:05:00,
2015-08-02 04:11:00,71.0,66.9,29.89,SSW,197,3.0,3.0,87,0.00,,,0.00,Wunderground v.1.15,2015-08-02 09:11:00,
2015-08-02 04:17:00,71.0,67.3,29.89,SSW,200,4.0,8.0,88,0.00,,,0.00,Wunderground v.1.15,2015-08-02 09:17:00,
2015-08-02 04:23:00,71.0,67.3,29.89,SSW,200,3.0,3.0,88,0.00,,,0.00,Wunderground v.1.15,2015-08-02 09:23:00,
2015-08-02 04:29:00,71.0,66.9,29.89,SSW,199,3.0,7.0,87,0.00,,,0.00,Wunderground v.1.15,2015-08-02 09:29:00,
2015-08-02 04:35:00,70.9,67.2,29.89,SSW,204,4.0,5.0,88,0.00,,,0.00,Wunderground v.1.15,2015-08-02 09:35:00,
2015-08-02 04:41:00,70.8,67.1,29.89,SSW,204,3.0,3.0,88,0.00,,,0.00,Wunderground v.1.15,2015-08-02 09:41:00,
2015-08-02 04:47:00,70.8,67.1,29.89,SSW,199,4.0,7.0,88,0.00,,,0.00,Wunderground v.1.15,2015-08-02 09:47:00,
2015-08-02 04:53:00,70.6,66.9,29.88,SSW,198,4.0,4.0,88,0.00,,,0.00,Wunderground v.1.15,2015-08-02 09:53:00,
2015-08-02 04:59:00,70.5,67.1,29.88,SSW,200,3.0,7.0,89,0.00,,,0.00,Wunderground v.1.15,2015-08-02 09:59:00,
2015-08-02 05:05:00,70.5,67.1,29.88,SSW,200,4.0,7.0,89,0.00,,,0.00,Wunderground v.1.15,2015-08-02 10:05:00,
2015-08-02 05:10:00,70.4,67.0,29.89,SSW,199,4.0,7.0,89,0.00,,,0.00,Wunderground v.1.15,2015-08-02 10:10:00,
2015-08-02 05:16:00,70.4,67.0,29.88,SSW,199,3.0,4.0,89,0.00,,,0.00,Wunderground v.1.15,2015-08-02 10:16:00,
2015-08-02 05:22:00,70.3,66.9,29.88,SSW,200,3.0,4.0,89,0.00,,,0.00,Wunderground v.1.15,2015-08-02 10:22:00,
2015-08-02 05:28:00,70.3,66.9,29.88,SSW,198,3.0,8.0,89,0.00,,,0.00,Wunderground v.1.15,2015-08-02 10:28:00,
2015-08-02 05:34:00,70.3,66.9,29.89,SSW,200,4.0,7.0,89,0.00,,,0.00,Wunderground v.1.15,2015-08-02 10:34:00,
2015-08-02 05:40:00,70.1,67.0,29.89,SSW,200,4.0,7.0,90,0.00,,,0.00,Wunderground v.1.15,2015-08-02 10:40:00,
2015-08-02 05:46:00,70.1,67.0,29.88,SSW,196,3.0,5.0,90,0.00,,,0.00,Wunderground v.1.15,2015-08-02 10:46:00,
2015-08-02 05:52:00,70.0,66.9,29.89,SSW,198,4.0,4.0,90,0.00,,,0.00,Wunderground v.1.15,2015-08-02 10:52:00,
2015-08-02 05:58:00,69.9,66.8,29.89,SSW,200,4.0,7.0,90,0.00,,,0.00,Wunderground v.1.15,2015-08-02 10:58:00,
2015-08-02 06:04:00,69.9,66.8,29.89,SSW,200,3.0,4.0,90,0.00,,,0.00,Wunderground v.1.15,2015-08-02 11:04:00,
2015-08-02 06:09:00,69.8,67.1,29.89,SSW,200,3.0,5.0,91,0.00,,,0.00,Wunderground v.1.15,2015-08-02 11:09:00,
2015-08-02 06:15:00,69.9,67.2,29.89,SSW,199,3.0,5.0,91,0.00,,,0.00,Wunderground v.1.15,2015-08-02 11:15:00,
2015-08-02 06:21:00,69.9,67.2,29.89,SSW,197,3.0,3.0,91,0.00,,,0.00,Wunderground v.1.15,2015-08-02 11:21:00,
2015-08-02 06:27:00,70.0,67.3,29.89,SSW,199,4.0,5.0,91,0.00,,,0.00,Wunderground v.1.15,2015-08-02 11:27:00,
2015-08-02 06:33:00,70.2,67.4,29.89,SSW,196,4.0,4.0,91,0.00,,,0.00,Wunderground v.1.15,2015-08-02 11:33:00,
2015-08-02 06:39:00,70.3,67.5,29.89,SSW,202,4.0,6.0,91,0.00,,,0.00,Wunderground v.1.15,2015-08-02 11:39:00,
2015-08-02 06:45:00,70.7,67.9,29.89,SSW,196,4.0,5.0,91,0.00,,,0.00,Wunderground v.1.15,2015-08-02 11:45:00,
2015-08-02 06:51:00,71.1,68.3,29.89,SSW,198,4.0,5.0,91,0.00,,,0.00,Wunderground v.1.15,2015-08-02 11:51:00,
2015-08-02 06:57:00,71.3,68.5,29.90,SSW,197,4.0,5.0,91,0.00,,,0.00,Wunderground v.1.15,2015-08-02 11:57:00,
2015-08-02 07:03:00,71.6,68.8,29.90,SSW,199,3.0,4.0,91,0.00,,,0.00,Wunderground v.1.15,2015-08-02 12:03:00,
2015-08-02 07:09:00,71.6,68.8,29.90,SSW,198,3.0,5.0,91,0.00,,,0.00,Wunderground v.1.15,2015-08-02 12:09:00,
2015-08-02 07:15:00,71.9,69.1,29.90,SSW,197,4.0,6.0,91,0.00,,,0.00,Wunderground v.1.15,2015-08-02 12:15:00,
2015-08-02 07:21:00,72.1,69.3,29.90,SSW,200,4.0,4.0,91,0.00,,,0.00,Wunderground v.1.15,2015-08-02 12:21:00,
2015-08-02 07:27:00,72.4,69.6,29.90,SSW,199,4.0,4.0,91,0.00,,,0.00,Wunderground v.1.15,2015-08-02 12:27:00,
2015-08-02 07:33:00,72.8,70.0,29.90,SSW,196,3.0,4.0,91,0.00,,,0.00,Wunderground v.1.15,2015-08-02 12:33:00,
2015-08-02 07:39:00,73.0,69.9,29.90,SSW,201,4.0,7.0,90,0.00,,,0.00,Wunderground v.1.15,2015-08-02 12:39:00,
2015-08-02 07:45:00,73.4,70.6,29.90,SSW,200,5.0,8.0,91,0.00,,,0.00,Wunderground v.1.15,2015-08-02 12:45:00,
2015-08-02 07:51:00,73.9,70.8,29.90,SSW,199,5.0,7.0,90,0.00,,,0.00,Wunderground v.1.15,2015-08-02 12:51:00,
2015-08-02 07:57:00,74.3,71.2,29.90,SSW,200,6.0,9.0,90,0.00,,,0.00,Wunderground v.1.15,2015-08-02 12:57:00,